Voltar ao catálogo

FENGYUN 1C DEB

AtivoSSO
NORAD 37691·DEBRIS·🇨🇳 China

Lançado May 10, 1999 de Taiyuan Satellite Launch Center

Loading…

Próximas Passagens (próximas 24 horas)

TLE

EnvelhecendoSource: Space-Track

Época: Sep 10, 2026, 00:36 UTC

1 37691U 99025ELG 26253.02563361  .00020576  00000-0  22865-2 0  9990
2 37691  98.3563 165.7573 0251284  23.5229 337.7233 14.66899572896009

Acompanhe FENGYUN 1C DEB em tempo real com AllMySat

Download on the App Store